When you browse on this site, cookies collect data to enhance your experience and personalize the content and advertising you see.
Visit our Privacy Policy to learn more. By continuing to use the site, you agree to this use of cookies and data.
  • In Hungary
  • List of Countries
  • For 7 days
  • Water Temperature
  • Satellite Maps
  • Weather Map
  • News
  • Weather Widgets
  • user-avatar
    Login

    Hourly Weather Podgrodzie

    Today, 24 January, Thursday

    Time Temperature Precipitation Wind Pressure Humidity
    00:00 -10°C° 0 mm 3 mps 727 mmHg 88%
    01:00 -10°C° 0 mm 3 mps 728 mmHg 87%
    02:00 -10°C° 0 mm 3 mps 728 mmHg 88%
    03:00 -10°C° 0 mm 3 mps 728 mmHg 88%
    04:00 -10°C° 0 mm 3 mps 728 mmHg 89%
    05:00 -10°C° 0 mm 3 mps 728 mmHg 89%
    06:00 -9°C° 0 mm 3 mps 728 mmHg 88%
    07:00 -9°C° 0 mm 3 mps 729 mmHg 88%
    08:00 -9°C° 0 mm 3 mps 729 mmHg 85%
    09:00 -9°C° 0 mm 4 mps 729 mmHg 83%
    10:00 -9°C° 0 mm 4 mps 729 mmHg 81%
    11:00 -8°C° 0 mm 4 mps 729 mmHg 80%
    12:00 -8°C° 0 mm 4 mps 729 mmHg 78%
    13:00 -7°C° 0 mm 4 mps 729 mmHg 77%
    14:00 -8°C° 0 mm 4 mps 729 mmHg 78%
    15:00 -8°C° 0 mm 4 mps 729 mmHg 79%
    16:00 -8°C° 0 mm 4 mps 729 mmHg 80%
    17:00 -9°C° 0 mm 4 mps 729 mmHg 81%
    18:00 -9°C° 0 mm 4 mps 729 mmHg 83%
    19:00 -9°C° 0 mm 4 mps 729 mmHg 84%
    20:00 -8°C° 0.1 mm 3 mps 729 mmHg 85%
    21:00 -8°C° 0.1 mm 3 mps 729 mmHg 86%
    22:00 -9°C° 0.1 mm 3 mps 730 mmHg 88%
    23:00 -9°C° 0.2 mm 3 mps 730 mmHg 88%

    Tomorrow, 25 January, Friday

    Time Temperature Precipitation Wind Pressure Humidity
    00:00 -8°C° 0.2 mm 2 mps 729 mmHg 88%
    01:00 -8°C° 0.2 mm 2 mps 729 mmHg 89%
    02:00 -8°C° 0.1 mm 2 mps 729 mmHg 89%
    03:00 -7°C° 0.1 mm 1 mps 729 mmHg 90%
    04:00 -7°C° 0.1 mm 1 mps 729 mmHg 90%
    05:00 -7°C° 0 mm 1 mps 730 mmHg 90%
    06:00 -7°C° 0 mm 1 mps 730 mmHg 90%
    07:00 -7°C° 0 mm 0 mps 730 mmHg 91%
    08:00 -6°C° 0 mm 1 mps 730 mmHg 89%
    09:00 -6°C° 0 mm 1 mps 731 mmHg 87%
    10:00 -4°C° 0 mm 1 mps 731 mmHg 85%
    11:00 -4°C° 0 mm 1 mps 731 mmHg 83%
    12:00 -5°C° 0 mm 2 mps 731 mmHg 82%
    13:00 -5°C° 0 mm 2 mps 731 mmHg 80%
    14:00 -5°C° 0 mm 2 mps 732 mmHg 81%
    15:00 -5°C° 0 mm 2 mps 732 mmHg 82%
    16:00 -5°C° 0 mm 2 mps 732 mmHg 83%
    17:00 -6°C° 0 mm 2 mps 732 mmHg 84%
    18:00 -6°C° 0 mm 1 mps 732 mmHg 86%
    19:00 -7°C° 0 mm 1 mps 733 mmHg 87%
    20:00 -7°C° 0 mm 1 mps 733 mmHg 87%
    21:00 -7°C° 0 mm 1 mps 733 mmHg 87%
    22:00 -7°C° 0 mm 1 mps 733 mmHg 86%
    23:00 -7°C° 0 mm 1 mps 733 mmHg 87%

    Day after tomorrow, 26 January, Saturday

    Time Temperature Precipitation Wind Pressure Humidity
    00:00 -8°C° 0 mm 2 mps 732 mmHg 88%
    01:00 -8°C° 0 mm 2 mps 732 mmHg 88%
    02:00 -9°C° 0 mm 2 mps 731 mmHg 87%
    03:00 -9°C° 0 mm 2 mps 731 mmHg 86%
    04:00 -9°C° 0 mm 2 mps 730 mmHg 86%
    05:00 -9°C° 0 mm 3 mps 730 mmHg 84%
    06:00 -9°C° 0 mm 3 mps 729 mmHg 82%
    07:00 -8°C° 0 mm 3 mps 729 mmHg 80%
    08:00 -8°C° 0.1 mm 4 mps 728 mmHg 80%
    09:00 -7°C° 0.1 mm 4 mps 727 mmHg 80%
    10:00 -4°C° 0.1 mm 4 mps 727 mmHg 79%
    11:00 -5°C° 0.4 mm 5 mps 726 mmHg 83%
    12:00 -4°C° 0.4 mm 5 mps 725 mmHg 86%
    13:00 -4°C° 0.4 mm 5 mps 724 mmHg 89%
    14:00 -4°C° 0.6 mm 5 mps 724 mmHg 90%
    15:00 -2°C° 0.6 mm 4 mps 724 mmHg 91%
    16:00 -1°C° 0.6 mm 3 mps 723 mmHg 92%
    17:00 -1°C° 0.1 mm 3 mps 724 mmHg 93%
    18:00 -1°C° 0.1 mm 3 mps 724 mmHg 94%
    19:00 -1°C° 0.1 mm 2 mps 724 mmHg 95%
    20:00 -1°C° 0 mm 2 mps 724 mmHg 95%
    21:00 -1°C° 0 mm 2 mps 725 mmHg 95%
    22:00 -1°C° 0 mm 2 mps 725 mmHg 95%
    23:00 -1°C° 0 mm 2 mps 725 mmHg 94%

    27 January, Sunday

    Time Temperature Precipitation Wind Pressure Humidity
    00:00 -1°C° 0 mm 2 mps 725 mmHg 93%
    01:00 -1°C° 0 mm 2 mps 725 mmHg 92%
    02:00 -1°C° 0 mm 2 mps 724 mmHg 92%
    03:00 -1°C° 0 mm 2 mps 724 mmHg 91%
    04:00 -1°C° 0 mm 2 mps 724 mmHg 91%
    05:00 -1°C° 0 mm 2 mps 724 mmHg 91%
    06:00 -1°C° 0 mm 2 mps 723 mmHg 91%
    07:00 -1°C° 0 mm 2 mps 723 mmHg 91%
    08:00 0°C° 0.1 mm 3 mps 723 mmHg 91%
    09:00 +1°C° 0.1 mm 3 mps 723 mmHg 92%
    10:00 +2°C° 0.1 mm 3 mps 723 mmHg 93%
    11:00 +2°C° 0 mm 3 mps 722 mmHg 93%
    12:00 +3°C° 0 mm 3 mps 722 mmHg 93%
    13:00 +4°C° 0 mm 2 mps 722 mmHg 93%
    14:00 +4°C° 0 mm 2 mps 721 mmHg 93%
    15:00 +3°C° 0 mm 2 mps 721 mmHg 93%
    16:00 +3°C° 0 mm 2 mps 721 mmHg 92%
    17:00 +2°C° 0 mm 2 mps 721 mmHg 92%
    18:00 +2°C° 0 mm 2 mps 720 mmHg 91%
    19:00 +2°C° 0 mm 2 mps 720 mmHg 90%
    20:00 +1°C° 0 mm 2 mps 720 mmHg 90%
    21:00 +1°C° 0 mm 2 mps 720 mmHg 89%
    22:00 +1°C° 0 mm 2 mps 720 mmHg 89%
    23:00 -1°C° 0 mm 2 mps 720 mmHg 88%

    28 January, Monday

    Time Temperature Precipitation Wind Pressure Humidity
    00:00 -2°C° 0 mm 2 mps 719 mmHg 88%
    01:00 -3°C° 0 mm 2 mps 719 mmHg 88%
    02:00 -2°C° 0 mm 2 mps 719 mmHg 88%
    03:00 -2°C° 0 mm 2 mps 719 mmHg 88%
    04:00 -1°C° 0 mm 2 mps 718 mmHg 88%
    05:00 -1°C° 0 mm 2 mps 718 mmHg 89%
    06:00 -1°C° 0 mm 2 mps 718 mmHg 89%
    07:00 -1°C° 0 mm 2 mps 718 mmHg 90%
    08:00 +2°C° 0 mm 1 mps 719 mmHg 90%
    09:00 +2°C° 0 mm 1 mps 719 mmHg 90%
    10:00 +3°C° 0 mm 1 mps 719 mmHg 90%
    11:00 +4°C° 0.2 mm 1 mps 719 mmHg 91%
    12:00 +4°C° 0.2 mm 1 mps 719 mmHg 93%
    13:00 +4°C° 0.2 mm 1 mps 719 mmHg 94%
    14:00 +4°C° 0.3 mm 1 mps 719 mmHg 94%
    15:00 +4°C° 0.3 mm 1 mps 719 mmHg 95%
    16:00 +3°C° 0.3 mm 1 mps 719 mmHg 95%
    17:00 +3°C° 0.1 mm 1 mps 719 mmHg 94%
    18:00 +3°C° 0.1 mm 1 mps 719 mmHg 94%
    19:00 +3°C° 0.1 mm 1 mps 719 mmHg 94%
    20:00 +1°C° 0 mm 2 mps 719 mmHg 93%
    21:00 +1°C° 0 mm 2 mps 720 mmHg 93%
    22:00 +1°C° 0 mm 2 mps 720 mmHg 92%
    23:00 0°C° 0.3 mm 3 mps 720 mmHg 91%

    29 January, Tuesday

    Time Temperature Precipitation Wind Pressure Humidity
    00:00 +1°C° 0.3 mm 3 mps 721 mmHg 90%
    01:00 0°C° 0.3 mm 4 mps 722 mmHg 90%
    02:00 -1°C° 0.7 mm 4 mps 722 mmHg 89%
    03:00 -1°C° 0.7 mm 5 mps 723 mmHg 89%
    04:00 -2°C° 0.7 mm 5 mps 724 mmHg 89%
    05:00 -2°C° 0.2 mm 5 mps 725 mmHg 89%
    06:00 -3°C° 0.2 mm 4 mps 726 mmHg 90%
    07:00 -3°C° 0.2 mm 4 mps 726 mmHg 90%
    08:00 -3°C° 0.2 mm 4 mps 727 mmHg 89%
    09:00 -3°C° 0.2 mm 4 mps 728 mmHg 88%
    10:00 -3°C° 0.2 mm 4 mps 729 mmHg 86%
    11:00 -3°C° 0.1 mm 4 mps 729 mmHg 84%
    12:00 -2°C° 0.1 mm 3 mps 729 mmHg 82%
    13:00 -1°C° 0.1 mm 3 mps 730 mmHg 80%
    14:00 -2°C° 0 mm 3 mps 730 mmHg 82%
    15:00 -2°C° 0 mm 2 mps 730 mmHg 83%
    16:00 -3°C° 0 mm 2 mps 730 mmHg 84%
    17:00 -4°C° 0 mm 2 mps 730 mmHg 85%
    18:00 -5°C° 0 mm 2 mps 730 mmHg 86%
    19:00 -6°C° 0 mm 2 mps 730 mmHg 87%
    20:00 -6°C° 0 mm 2 mps 731 mmHg 87%
    21:00 -7°C° 0 mm 2 mps 731 mmHg 86%
    22:00 -7°C° 0 mm 2 mps 731 mmHg 86%
    23:00 -7°C° 0 mm 2 mps 730 mmHg 84%
    Show more